Location: Cactus School
(34.5700°N, 118.0931°W)
Time: 21:05:53
(UTC-07:00)

Vanguard 2 - Pass Details

Date: 01 May 2024
Orbit: 553 x 2914 km, 32.9° (Epoch: 18 May)

Event Time Altitude Azimuth Distance (km) Brightness Sun altitude
Rises 04:43:36 0° 283° (WNW) 5,814 11.6 -15.3°
Reaches altitude 10° 04:47:08 10° 279° (W) 5,055 11.2 -14.7°
Maximum altitude 05:02:16 55° 208° (SSW) 3,269 10.4 -12.0°
Drops below altitude 10° 05:19:02 10° 136° (SE) 5,523 12.1 -8.9°
Sets 05:23:08 0° 132° (SE) 6,360 12.5 -8.2°
